Regional Weather Roundup
Issued by NWS Sterling, VA

Current Version | Previous Version | Text Only | Print | Product List | Glossary On
Versions: 1 2 3 4 5 6 7 8 9 10 11 12 13 14 15 16 17 18 19 20 21 22 23 24 25 26 27
000
ASUS41 KLWX 111511
RWRLWX

REGIONAL WEATHER ROUNDUP
NATIONAL WEATHER SERVICE BALTIMORE MD/WASHINGTON DC
1000 AM EST MON DEC 11 2017

Note: "FAIR" indicates few or no clouds below 12,000 feet
with no significant weather and/or obstructions to visibility.
 TC=TEMPERATURE CELSIUS

 * =Non NWS site. Station does not report precipitation (e.g. rain,
    snow, etc.), thunder, or fog.

DCZ001-MDZ009-015-VAZ040>042-051-053>054-111600-
WASHINGTON METRO

CITY           SKY/WX    TMP DP  RH WIND       PRES   REMARKS
WASHINGTON NAT MOSUNNY   41  32  70 S5        30.11R
DULLES         MOSUNNY   36  31  82 SW5       30.10R
ANDREWS AFB    SUNNY     42  26  53 CALM      30.08R
FT BELVOIR     SUNNY     42  27  56 W3        30.11R
QUANTICO       SUNNY     40  28  62 CALM      30.13R
COLLEGE PARK*  SUNNY     41  28  61 CALM      30.09R
LEESBURG*      SUNNY     41  30  65 CALM      30.10R
MANASSAS*      SUNNY     38  28  67 W3        30.11R
GAITHERSBURG*  SUNNY     38  24  57 W8        30.09R

$$

MDZ006>007-011-014-111600-
BALTIMORE METRO

CITY           SKY/WX    TMP DP  RH WIND       PRES   REMARKS
BWI AIRPORT    MOSUNNY   42  27  55 W6        30.09R
MD SCIENCE CTR   N/A     43  26  51 MISG      30.10R
MARTIN STATE   MOSUNNY   39  30  70 CALM      30.11R
ANNAPOLIS      SUNNY     42  31  64 CALM      30.09S
FORT MEADE*    SUNNY     37  28  70 CALM      30.11S

$$

MDZ012-015-019>023-111600-
MARYLAND EASTERN SHORE

CITY           SKY/WX    TMP DP  RH WIND       PRES   REMARKS
OCEAN CITY     SUNNY     40  31  70 W6        30.12R
SALISBURY      SUNNY     36  31  82 S5        30.11S
BAY BRIDGE AP* SUNNY     41  27  56 NW6       30.09S
CAMBRIDGE*     SUNNY     37  30  75 CALM      30.11S
EASTON*        SUNNY     43  28  56 SW3       30.13S

$$

MDZ017>025-111600-
SOUTHERN MARYLAND

CITY           SKY/WX    TMP DP  RH WIND       PRES   REMARKS
PATUXENT RIVER SUNNY     40  27  59 CALM      30.10F
ST INIGOES     SUNNY     40  31  70 S5        30.10F
LEONARDTOWN*   SUNNY     37  28  70 CALM      30.11F

$$

MDZ003>005-111600-
NORTH CENTRAL MARYLAND

CITY           SKY/WX    TMP DP  RH WIND       PRES   REMARKS
FREDERICK*     MOSUNNY   39  25  56 S3        30.11R
HAGERSTOWN APT PTSUNNY   38  21  50 W6        30.05S
WESTMINSTER*   MOSUNNY   37  25  60 SW5       30.05R

$$

MDZ501>502-111600-
WESTERN MARYLAND

CITY           SKY/WX    TMP DP  RH WIND       PRES   REMARKS
OAKLAND*       CLOUDY    27  19  74 W9        29.92R WCI  17
CUMBERLAND*    SUNNY     39  21  48 W6        30.10R

$$

VAZ025>031-111600-
SHENANDOAH VALLEY

CITY           SKY/WX    TMP DP  RH WIND       PRES   REMARKS
WINCHESTER*    SUNNY     37  23  56 W5        30.06S
FRONT ROYAL*   FAIR      37  25  60 MISG      30.06S
LURAY*         SUNNY     36  27  69 CALM      30.06F
NEW MARKET*    SUNNY     37  24  60 CALM      30.06S
STAUNTON*      SUNNY     37  25  61 SW5       30.08S
WAYNESBORO*    SUNNY     39  23  52 SW9       30.07R

$$

WVZ021-048>050-054>055-111600-
EASTERN WEST VIRGINIA PANHANDLE

CITY           SKY/WX    TMP DP  RH WIND       PRES   REMARKS
MARTINSBURG    MOSUNNY   39  20  46 W10       30.06R
PETERSBURG*    SUNNY     40  21  47 S5        30.05F

$$

VAZ036>039-050-111600-
CENTRAL FOOTHILLS

CITY           SKY/WX    TMP DP  RH WIND       PRES   REMARKS
CHARLOTTESVILL SUNNY     37  25  61 VRB5      30.09R
CULPEPER*      FAIR      38  26  61 SW3       30.12R
ORANGE*        SUNNY     36  27  69 CALM      30.10R
GORDONSVILLE*  SUNNY     37  26  62 SW5       30.10R
WARRENTON*     SUNNY     40  25  55 SW5       30.10R

$$

VAZ055>057-111600-
NORTH AND CENTRAL PIEDMONT

CITY           SKY/WX    TMP DP  RH WIND       PRES   REMARKS
FREDERICKSBRG* SUNNY     41  28  59 CALM      30.11R
STAFFORD*      SUNNY     38  27  65 CALM      30.15R

$$

NCZ024-NYZ072-PAZ021-071-VAZ022-071-111600-
OTHER REGIONAL OBSERVATIONS

CITY           SKY/WX    TMP DP  RH WIND       PRES   REMARKS
NEW YORK CITY  SUNNY     36  26  67 W8        30.05S
PHILADELPHIA   MOSUNNY   39  23  52 W10       30.08R
PITTSBURGH     CLOUDY    33  18  53 VRB6      30.02S
ROANOKE        SUNNY     42  24  49 W12       30.13R
RICHMOND       MOSUNNY   43  25  49 W13       30.11S
RALEIGH        MOSUNNY   41  31  67 S5        30.15S

$$

ANZ530>537-111600-
MARINE OBSERVATIONS

STATION/POSITION TIME  TEMP    WIND        PRES
                       AIR SEA DIR/SP/G
                 (UTC) (F)     (DEG/KT/KT) (MB)
THOMAS PT LIGHT  1500   39 48  180/  5/  6   N/A
BALT KEY BRIDGE  1436   39     220/  2/  3 1019.0R
COVE POINT       1436   42     280/  2/  3 1019.9F
LEWISETTA        1436   37 44  250/  4/  6 1019.7S
SOLOMONS ISLAND  1436   43 49   CALM  /  3 1019.1S
PINEY POINT      1436          230/  3/  4   N/A

$$





USA.gov is the U.S. government's official web portal to all federal, state and local government web resources and services.